This is the latest recevied weather packets stored in our database for station/object LU1MQF-13. If no packets are shown the sender has not sent any weather packets the latest 10 day(s).
| Time | Temp. | Humidity | Pressure | Rain* | Wind** | Luminosity | Snow |
|---|---|---|---|---|---|---|---|
| 1777261308 | 12.78° C | 37% | 947.8 hPa | - | - | - | - |
| 1777260408 | 12.78° C | 37% | 947.9 hPa | - | - | - | - |
| 1777259509 | 12.78° C | 36% | 947.9 hPa | - | - | - | - |
| 1777258609 | 12.78° C | 36% | 948 hPa | - | - | - | - |
| 1777257708 | 12.78° C | 38% | 947.8 hPa | - | - | - | - |
| 1777256808 | 12.78° C | 39% | 947.9 hPa | - | - | - | - |
| 1777255908 | 12.78° C | 39% | 947.9 hPa | - | - | - | - |
| 1777255008 | 13.89° C | 41% | 947.9 hPa | - | - | - | - |
| 1777254109 | 13.89° C | 37% | 947.7 hPa | - | - | - | - |
| 1777253208 | 12.78° C | 34% | 947.5 hPa | - | - | - | - |
| 1777252308 | 12.78° C | 34% | 947.5 hPa | - | - | - | - |
| 1777251408 | 12.78° C | 34% | 947.3 hPa | - | - | - | - |
| 1777250508 | 12.78° C | 35% | 947.3 hPa | - | - | - | - |
| 1777249611 | 15° C | 42% | 947.1 hPa | - | - | - | - |
| 1777248708 | 13.89° C | 33% | 946.7 hPa | - | - | - | - |
| 1777247808 | 13.89° C | 34% | 946.5 hPa | - | - | - | - |
| 1777246908 | 13.89° C | 34% | 946.4 hPa | - | - | - | - |
| 1777246008 | 13.89° C | 34% | 946.2 hPa | - | - | - | - |
| 1777245109 | 13.89° C | 35% | 945.9 hPa | - | - | - | - |
| 1777244208 | 13.89° C | 36% | 945.9 hPa | - | - | - | - |
| 1777243308 | 16.11° C | 41% | 945.5 hPa | - | - | - | - |
| 1777242408 | 15° C | 48% | 945.4 hPa | - | - | - | - |
| 1777241508 | 15° C | 41% | 945.1 hPa | - | - | - | - |
| 1777240608 | 15° C | 36% | 944.9 hPa | - | - | - | - |
| 1777239708 | 16.11° C | 37% | 944.8 hPa | - | - | - | - |
* Rain since midnight (hover to see other rain measurements)
** Current wind speed in m/s (hover to see current wind gust speed)